map of BPG home
BPG - Airport
Location
City:  Barra do Garças, Mato Grosso, Brazil
ICAO:SBBW
IATA:BPG

Details
Type:Airport (Aerodrome, Airfield)
Latitude:15°51'41"S (-15.861343)
Longitude:52°23'20"W (-52.388893)
Datum:WGS 1984
Elevation:1147 ft (350 m)
Variation:19.64°W (WMM2015 magnetic declination)
-0.13° annual change
Runways:1
Longest:5243 × 98 ft (1598 × 30 m), paved

Time
Time Zone:UTC-4 (DST-3)
Local Time:

Weather
METAR:SBBW 221100Z 09002KT 9999 SCT015 BKN080 25/22 Q1015
TAF:SBBW 220400Z 2206/2218 09004KT 9999 SCT020 FEW030TCU TN22/2209Z TX28/2218Z PROB40 2206/2218 09004KT TSRA BKN012 SCT020 FEW030CB
RMK PDS

Related Locations
Nearby:
Farthest:VRC: 12166 mi / 19579 km
Virac [Virac Airport], Catanduanes Island, PH

Find:

   beyond  
but within

Other Information
Maps:
NOTAMs:
Links:
Sources:

  
  • flag of Brazil
  • flag of Mato Grosso
  

Sectional Chart

Flight Planning
at skyvector.com

Satellite Image

Google Maps Satellite view

 

Copyright © 2004-2018 Karl L. Swartz. All rights reserved.
The Great Circle Mapper name and logo are trademarks of the Great Circle Mapper.
All other trademarks mentioned herein belong to their respective owners.
Please see credits for attibutions and further copyright information.

  Follow gcmap on Facebook Follow gcmap on Twitter Follow gcmap on Google+ GCmap on LinkedIn

hCard Microformat

Geo Microformat